Time,TemperatureF,DewpointF,PressureIn,WindDirection,WindDirectionDegrees,WindSpeedMPH,WindSpeedGustMPH,Humidity,HourlyPrecipIn,Conditions,Clouds,dailyrainin,SolarRadiationWatts/m^2,SoftwareType,DateUTC
2013-11-12 00:21:00,22.0,21.0,-100.00,NNW,343,2.0,5.0,94,0.00,,,0.00,0.000000,,2013-11-12 07:21:00,
2013-11-12 00:32:00,22.0,21.0,-100.00,NNW,343,2.0,5.0,94,0.00,,,0.00,0.000000,,2013-11-12 07:32:00,
2013-11-12 00:42:00,22.0,21.0,-100.00,NNW,343,2.0,5.0,94,0.00,,,0.00,0.000000,,2013-11-12 07:42:00,
2013-11-12 00:52:00,22.0,21.0,-100.00,NNW,343,2.0,5.0,94,0.00,,,0.00,0.000000,,2013-11-12 07:52:00,
2013-11-12 01:21:00,22.0,21.0,-100.00,NW,322,2.0,6.0,95,0.00,,,0.00,0.000000,,2013-11-12 08:21:00,
2013-11-12 01:32:00,22.0,21.0,-100.00,NW,322,2.0,6.0,95,0.00,,,0.00,0.000000,,2013-11-12 08:32:00,
2013-11-12 01:42:00,22.0,21.0,-100.00,NW,322,2.0,6.0,95,0.00,,,0.00,0.000000,,2013-11-12 08:42:00,
2013-11-12 01:52:00,22.0,21.0,-100.00,NW,322,2.0,6.0,95,0.00,,,0.00,0.000000,,2013-11-12 08:52:00,
2013-11-12 02:21:00,22.0,21.0,-100.00,North,4,1.0,5.0,94,0.00,,,0.00,0.000000,,2013-11-12 09:21:00,
2013-11-12 02:33:00,22.0,21.0,-100.00,North,4,1.0,5.0,94,0.00,,,0.00,0.000000,,2013-11-12 09:33:00,
2013-11-12 02:42:00,22.0,21.0,-100.00,North,4,1.0,5.0,94,0.00,,,0.00,0.000000,,2013-11-12 09:42:00,
2013-11-12 02:53:00,22.0,21.0,-100.00,North,4,1.0,5.0,94,0.00,,,0.00,0.000000,,2013-11-12 09:53:00,
2013-11-12 03:23:00,22.0,21.0,-100.00,NW,320,3.0,6.0,94,0.00,,,0.00,0.000000,,2013-11-12 10:23:00,
2013-11-12 03:32:00,22.0,21.0,-100.00,NW,320,3.0,6.0,94,0.00,,,0.00,0.000000,,2013-11-12 10:32:00,
2013-11-12 03:42:00,22.0,21.0,-100.00,NW,320,3.0,6.0,94,0.00,,,0.00,0.000000,,2013-11-12 10:42:00,
2013-11-12 03:53:00,22.0,21.0,-100.00,NW,320,3.0,6.0,94,0.00,,,0.00,0.000000,,2013-11-12 10:53:00,
2013-11-12 05:22:00,27.0,26.0,-100.00,NW,316,5.0,8.0,95,-99.99,,,0.00,0.000000,,2013-11-12 12:22:00,
2013-11-12 05:32:00,27.0,26.0,-100.00,NW,316,5.0,8.0,95,-99.99,,,0.00,0.000000,,2013-11-12 12:32:00,
2013-11-12 05:42:00,27.0,26.0,-100.00,NW,316,5.0,8.0,95,-99.99,,,0.00,0.000000,,2013-11-12 12:42:00,
2013-11-12 05:52:00,27.0,26.0,-100.00,NW,316,5.0,8.0,95,-99.99,,,0.00,0.000000,,2013-11-12 12:52:00,
2013-11-12 06:22:00,27.0,26.0,-100.00,NW,314,4.0,9.0,95,0.00,,,0.00,0.000000,,2013-11-12 13:22:00,
2013-11-12 06:32:00,27.0,26.0,-100.00,NW,314,4.0,9.0,95,0.00,,,0.00,0.000000,,2013-11-12 13:32:00,
2013-11-12 06:42:00,27.0,26.0,-100.00,NW,314,4.0,9.0,95,0.00,,,0.00,0.000000,,2013-11-12 13:42:00,
2013-11-12 06:52:00,27.0,26.0,-100.00,NW,314,4.0,9.0,95,0.00,,,0.00,0.000000,,2013-11-12 13:52:00,
2013-11-12 07:22:00,27.0,26.0,-100.00,NNW,333,3.0,10.0,95,0.00,,,0.00,2.000000,,2013-11-12 14:22:00,
2013-11-12 07:32:00,27.0,26.0,-100.00,NNW,333,3.0,10.0,95,0.00,,,0.00,2.000000,,2013-11-12 14:32:00,
2013-11-12 07:42:00,27.0,26.0,-100.00,NNW,333,3.0,10.0,95,0.00,,,0.00,2.000000,,2013-11-12 14:42:00,
2013-11-12 07:52:00,27.0,26.0,-100.00,NNW,333,3.0,10.0,95,0.00,,,0.00,2.000000,,2013-11-12 14:52:00,
2013-11-12 08:22:00,28.0,27.0,-100.00,WSW,237,3.0,7.0,94,0.00,,,0.00,25.000000,,2013-11-12 15:22:00,
2013-11-12 08:33:00,28.0,27.0,-100.00,WSW,237,3.0,7.0,94,0.00,,,0.00,25.000000,,2013-11-12 15:33:00,
2013-11-12 08:43:00,28.0,27.0,-100.00,WSW,237,3.0,7.0,94,0.00,,,0.00,25.000000,,2013-11-12 15:43:00,
2013-11-12 08:53:00,28.0,27.0,-100.00,WSW,237,3.0,7.0,94,0.00,,,0.00,25.000000,,2013-11-12 15:53:00,
2013-11-12 09:23:00,30.0,27.0,-100.00,SW,218,4.0,7.0,90,0.00,,,0.00,126.000000,,2013-11-12 16:23:00,
2013-11-12 09:33:00,30.0,27.0,-100.00,SW,218,4.0,7.0,90,0.00,,,0.00,126.000000,,2013-11-12 16:33:00,
2013-11-12 09:42:00,30.0,27.0,-100.00,SW,218,4.0,7.0,90,0.00,,,0.00,126.000000,,2013-11-12 16:42:00,
2013-11-12 09:52:00,30.0,27.0,-100.00,SW,218,4.0,7.0,90,0.00,,,0.00,126.000000,,2013-11-12 16:52:00,
2013-11-12 11:23:00,38.0,30.0,-100.00,South,174,3.0,5.0,73,-99.99,,,0.00,479.000000,,2013-11-12 18:23:00,
2013-11-12 11:32:00,38.0,30.0,-100.00,South,174,3.0,5.0,73,-99.99,,,0.00,479.000000,,2013-11-12 18:32:00,
2013-11-12 11:42:00,38.0,30.0,-100.00,South,174,3.0,5.0,73,-99.99,,,0.00,479.000000,,2013-11-12 18:42:00,
2013-11-12 11:52:00,38.0,30.0,-100.00,South,174,3.0,5.0,73,-99.99,,,0.00,479.000000,,2013-11-12 18:52:00,
2013-11-12 12:22:00,44.0,32.0,-100.00,West,273,4.0,6.0,63,0.00,,,0.00,546.000000,,2013-11-12 19:22:00,
2013-11-12 12:32:00,44.0,32.0,-100.00,West,273,4.0,6.0,63,0.00,,,0.00,546.000000,,2013-11-12 19:32:00,
2013-11-12 12:42:00,44.0,32.0,-100.00,West,273,4.0,6.0,63,0.00,,,0.00,546.000000,,2013-11-12 19:42:00,
2013-11-12 12:52:00,44.0,32.0,-100.00,West,273,4.0,6.0,63,0.00,,,0.00,546.000000,,2013-11-12 19:52:00,
2013-11-12 13:21:00,51.0,33.0,-100.00,NW,321,3.0,7.0,49,0.00,,,0.00,546.000000,,2013-11-12 20:21:00,
2013-11-12 13:32:00,51.0,33.0,-100.00,NW,321,3.0,7.0,49,0.00,,,0.00,546.000000,,2013-11-12 20:32:00,
2013-11-12 13:42:00,51.0,33.0,-100.00,NW,321,3.0,7.0,49,0.00,,,0.00,546.000000,,2013-11-12 20:42:00,
2013-11-12 13:52:00,51.0,33.0,-100.00,NW,321,3.0,7.0,49,0.00,,,0.00,546.000000,,2013-11-12 20:52:00,
2013-11-12 14:22:00,55.0,29.0,-100.00,West,275,3.0,8.0,37,0.00,,,0.00,475.000000,,2013-11-12 21:22:00,
2013-11-12 14:34:00,55.0,29.0,-100.00,West,275,3.0,8.0,37,0.00,,,0.00,475.000000,,2013-11-12 21:34:00,
2013-11-12 14:44:00,55.0,29.0,-100.00,West,275,3.0,8.0,37,0.00,,,0.00,475.000000,,2013-11-12 21:44:00,
2013-11-12 14:54:00,55.0,29.0,-100.00,West,275,3.0,8.0,37,0.00,,,0.00,475.000000,,2013-11-12 21:54:00,
2013-11-12 15:24:00,55.0,31.0,-100.00,West,260,4.0,7.0,40,0.00,,,0.00,136.000000,,2013-11-12 22:24:00,
2013-11-12 15:33:00,55.0,31.0,-100.00,West,260,4.0,7.0,40,0.00,,,0.00,136.000000,,2013-11-12 22:33:00,
2013-11-12 15:43:00,55.0,31.0,-100.00,West,260,4.0,7.0,40,0.00,,,0.00,136.000000,,2013-11-12 22:43:00,
2013-11-12 15:54:00,55.0,31.0,-100.00,West,260,4.0,7.0,40,0.00,,,0.00,136.000000,,2013-11-12 22:54:00,
2013-11-12 16:23:00,54.0,31.0,-100.00,West,271,3.0,7.0,41,0.00,,,0.00,22.000000,,2013-11-12 23:23:00,
2013-11-12 16:33:00,54.0,31.0,-100.00,West,271,3.0,7.0,41,0.00,,,0.00,22.000000,,2013-11-12 23:33:00,
2013-11-12 16:42:00,54.0,31.0,-100.00,West,271,3.0,7.0,41,0.00,,,0.00,22.000000,,2013-11-12 23:42:00,
2013-11-12 16:53:00,54.0,31.0,-100.00,West,271,3.0,7.0,41,0.00,,,0.00,22.000000,,2013-11-12 23:53:00,
2013-11-12 17:22:00,46.0,29.0,-100.00,WNW,294,1.0,3.0,52,0.00,,,0.00,9.000000,,2013-11-13 00:22:00,
2013-11-12 17:32:00,46.0,29.0,-100.00,WNW,294,1.0,3.0,52,0.00,,,0.00,9.000000,,2013-11-13 00:32:00,
2013-11-12 17:42:00,46.0,29.0,-100.00,WNW,294,1.0,3.0,52,0.00,,,0.00,9.000000,,2013-11-13 00:42:00,
2013-11-12 17:52:00,46.0,29.0,-100.00,WNW,294,1.0,3.0,52,0.00,,,0.00,9.000000,,2013-11-13 00:52:00,
2013-11-12 18:22:00,44.0,30.0,-100.00,South,182,2.0,4.0,57,0.00,,,0.00,0.000000,,2013-11-13 01:22:00,
2013-11-12 18:32:00,44.0,30.0,-100.00,South,182,2.0,4.0,57,0.00,,,0.00,0.000000,,2013-11-13 01:32:00,
2013-11-12 18:42:00,44.0,30.0,-100.00,South,182,2.0,4.0,57,0.00,,,0.00,0.000000,,2013-11-13 01:42:00,
2013-11-12 18:52:00,44.0,30.0,-100.00,South,182,2.0,4.0,57,0.00,,,0.00,0.000000,,2013-11-13 01:52:00,
2013-11-12 19:22:00,43.0,30.0,-100.00,WSW,239,0.0,5.0,60,0.00,,,0.00,0.000000,,2013-11-13 02:22:00,
2013-11-12 19:32:00,43.0,30.0,-100.00,WSW,239,0.0,5.0,60,0.00,,,0.00,0.000000,,2013-11-13 02:32:00,
2013-11-12 19:42:00,43.0,30.0,-100.00,WSW,239,0.0,5.0,60,0.00,,,0.00,0.000000,,2013-11-13 02:42:00,
2013-11-12 19:52:00,43.0,30.0,-100.00,WSW,239,0.0,5.0,60,0.00,,,0.00,0.000000,,2013-11-13 02:52:00,
2013-11-12 20:22:00,43.0,28.0,-100.00,NNW,330,2.0,4.0,56,0.00,,,0.00,0.000000,,2013-11-13 03:22:00,
2013-11-12 20:34:00,43.0,28.0,-100.00,NNW,330,2.0,4.0,56,0.00,,,0.00,0.000000,,2013-11-13 03:34:00,
2013-11-12 20:44:00,43.0,28.0,-100.00,NNW,330,2.0,4.0,56,0.00,,,0.00,0.000000,,2013-11-13 03:44:00,
2013-11-12 20:54:00,43.0,28.0,-100.00,NNW,330,2.0,4.0,56,0.00,,,0.00,0.000000,,2013-11-13 03:54:00,
2013-11-12 21:23:00,44.0,29.0,-100.00,WNW,287,2.0,4.0,56,0.00,,,0.00,0.000000,,2013-11-13 04:23:00,
2013-11-12 21:34:00,44.0,29.0,-100.00,WNW,287,2.0,4.0,56,0.00,,,0.00,0.000000,,2013-11-13 04:34:00,
2013-11-12 21:43:00,44.0,29.0,-100.00,WNW,287,2.0,4.0,56,0.00,,,0.00,0.000000,,2013-11-13 04:43:00,
2013-11-12 21:53:00,44.0,29.0,-100.00,WNW,287,2.0,4.0,56,0.00,,,0.00,0.000000,,2013-11-13 04:53:00,
2013-11-12 22:23:00,42.0,29.0,-100.00,North,3,2.0,3.0,60,0.00,,,0.00,0.000000,,2013-11-13 05:23:00,
2013-11-12 22:33:00,42.0,29.0,-100.00,North,3,2.0,3.0,60,0.00,,,0.00,0.000000,,2013-11-13 05:33:00,
2013-11-12 22:43:00,42.0,29.0,-100.00,North,3,2.0,3.0,60,0.00,,,0.00,0.000000,,2013-11-13 05:43:00,
2013-11-12 22:53:00,42.0,29.0,-100.00,North,3,2.0,3.0,60,0.00,,,0.00,0.000000,,2013-11-13 05:53:00,
2013-11-12 23:22:00,41.0,28.0,-100.00,NW,322,2.0,6.0,60,0.00,,,0.00,0.000000,,2013-11-13 06:22:00,
2013-11-12 23:32:00,41.0,28.0,-100.00,NW,322,2.0,6.0,60,0.00,,,0.00,0.000000,,2013-11-13 06:32:00,
2013-11-12 23:42:00,41.0,28.0,-100.00,NW,322,2.0,6.0,60,0.00,,,0.00,0.000000,,2013-11-13 06:42:00,
2013-11-12 23:52:00,41.0,28.0,-100.00,NW,322,2.0,6.0,60,0.00,,,0.00,0.000000,,2013-11-13 06:52:00,